[[{"header":{"parameterUnit":"m.s-1","parameterCategory":1,"la1":30.2991,"la2":30.254,"lo1":-89.0895,"lo2":-89.0444,"dy":0.0017,"dx":0.0017,"nx":28,"ny":28,"refTime":"2024-07-19T21:00:00:Z","depth":0,"parameterNumber":2,"parameterNumberName":"U-component_of_WINDS"},"data":[0,0,0,0,0,0,0,0,0,0,0,0,0,0,0,0,0,0,0,0,0,0,0,0,0,0,0,0,0,0,0,0,0,0,0,0,0,0,0,0,0,0,0,0,0,0,0,0,0,0,0,0,0,0,0,0,0,0,1.7074,1.7074,0,1.708,1.708,1.7081,1.7027,1.7026,1.7024,1.7023,1.7027,1.7028,1.703,0,0,0,0,0,0,0,0,0,0,0,0,0,1.7015,1.7016,1.7074,1.7074,1.7074,1.708,1.708,1.7081,1.7028,1.7026,1.7024,1.7022,1.7026,1.7028,1.703,0,0,0,0,0,0,0,0,0,0,0,0,0,1.7033,1.7017,1.7074,1.7049,1.7047,1.708,1.7081,1.7081,1.7028,1.7026,1.7024,1.7021,1.7026,1.7028,1.703,1.7088,0,0,1.7037,1.7038,0,0,0,0,0,0,0,0,1.7032,1.7035,1.7052,1.7051,1.7048,1.7051,1.7061,1.7083,1.7028,1.7035,1.7023,1.702,1.7036,1.7038,1.7043,1.7088,1.7088,1.7037,1.7038,1.7039,1.704,0,0,0,0,0,0,0,1.7031,1.7035,1.7077,1.7053,1.705,1.7037,1.7037,1.7065,1.7048,1.7034,1.703,1.7032,1.7035,1.7041,1.7043,1.7088,1.7037,1.7039,1.704,1.7041,1.7181,1.7184,0,0,0,0,0,0,1.7033,1.7034,1.7076,1.7077,1.7035,1.7039,1.7039,1.7052,1.7047,1.7045,1.7034,1.7029,1.7039,1.7041,1.7043,1.7111,1.7039,1.7041,1.7042,1.7179,1.7182,1.7184,0,0,0,0,0,0,1.7032,1.7038,1.7076,1.7054,1.7058,1.7043,1.7057,1.7053,1.706,1.7047,1.7044,1.7044,1.7037,1.704,1.7077,1.711,1.7042,1.7044,1.7176,1.718,1.7183,1.7247,0,0,0,0,0,0,1.7031,1.7038,1.7059,1.7055,1.706,1.7111,1.7059,1.7055,1.7064,1.7059,1.7056,1.7053,1.7036,1.7074,1.708,1.7112,1.7046,1.7173,1.7178,1.7182,1.7242,1.7252,1.7261,0,0,0,0,0,1.7029,1.7076,1.7061,1.7066,1.7087,1.7113,1.7115,1.7095,1.7067,1.7089,1.7081,1.7053,1.7106,1.7079,1.7084,1.7118,1.7171,1.7176,1.7182,1.7237,1.725,1.7261,0,0,0,0,0,0,1.7083,1.7075,1.7058,1.7106,1.7111,1.7104,1.7131,1.7109,1.7121,1.7115,1.7089,1.7088,1.7131,1.7128,1.7097,1.7174,1.7133,1.714,1.7174,1.7186,1.7196,1.7195,1.7048,0,0,0,0,0,1.7101,1.7124,1.7115,1.7158,1.7162,1.7146,1.7157,1.7141,1.7144,1.7146,1.714,1.7144,1.7162,1.7174,1.7189,1.7242,1.724,1.7267,1.7277,1.7285,1.7291,1.7319,1.7331,1.7202,1.7202,1.7202,0,0,1.7137,1.7136,1.7151,1.7169,1.7171,1.7195,1.7148,1.7174,1.7192,1.7149,1.7185,1.7181,1.7184,1.723,1.7249,1.7229,1.7327,1.7292,1.7299,1.73,1.7326,1.7338,1.7349,1.7206,1.7205,1.7205,0,0,1.7215,1.7217,1.7253,1.7257,1.7261,1.7251,1.726,1.7257,1.7254,1.7289,1.7258,1.7278,1.7309,1.7312,1.7318,1.7401,1.7376,1.7407,1.7457,1.7485,1.7495,1.7504,1.7534,1.7545,1.7413,1.7413,1.7413,0,1.726,1.7295,1.7274,1.7304,1.7313,1.7277,1.7314,1.7318,1.7327,1.7334,1.7311,1.735,1.7349,1.7395,1.7416,1.7421,1.7431,1.7406,1.7495,1.7504,1.7512,1.754,1.7551,1.7417,1.7416,1.7416,1.7415,0,1.7349,1.7375,1.7403,1.7415,1.7427,1.746,1.7444,1.7458,1.7442,1.7435,1.7472,1.747,1.7485,1.7495,1.7478,1.7539,1.7526,1.75,1.7459,1.7529,1.7554,1.7565,1.7422,1.7421,1.7419,1.7418,0,0,1.746,1.7462,1.7472,1.7478,1.7481,1.75,1.7531,1.7547,1.7561,1.7568,1.7594,1.7622,1.7598,1.7605,1.7589,1.7614,1.768,1.7584,1.7584,1.7602,1.7747,1.7767,1.778,1.7664,1.7666,1.7667,1.7747,0,1.7536,1.7592,1.7575,1.763,1.7653,1.7622,1.7649,1.7654,1.7648,1.7667,1.766,1.768,1.7647,1.7651,1.7674,1.7667,1.7709,1.7661,1.7687,1.7688,1.7687,1.7793,1.7814,1.7889,1.7757,1.7759,1.776,0,1.7632,1.7646,1.7705,1.7706,1.7715,1.774,1.7754,1.7773,1.7778,1.7772,1.7781,1.776,1.7791,1.7751,1.7793,1.7761,1.7771,1.7769,1.7772,1.7773,1.7728,1.7797,1.7912,1.7924,1.7776,1.7774,1.7773,0,1.7708,1.7741,1.778,1.7786,1.7788,1.7807,1.7808,1.7811,1.7823,1.7835,1.7842,1.7858,1.7866,1.7878,1.7862,1.7834,1.7907,1.7865,1.7903,1.7903,1.7918,1.7918,1.8037,1.7926,1.7926,1.7925,1.7925,0,1.7795,1.7831,1.7814,1.7838,1.7879,1.786,1.79,1.7898,1.7902,1.7925,1.7898,1.792,1.7898,1.7918,1.7905,1.7943,1.7946,1.7942,1.7938,1.7944,1.7945,1.795,1.7944,1.7928,1.7928,1.7927,1.7927,0,1.7884,1.7875,1.7915,1.7916,1.7916,1.7946,1.7946,1.7968,1.7961,1.7991,1.7996,1.7985,1.8008,1.7994,1.8015,1.8007,1.8056,1.8045,1.8055,1.8052,1.809,1.8086,1.8216,1.8232,1.8111,1.8112,1.8113,0,1.794,1.7968,1.7972,1.7987,1.7991,1.8014,1.8026,1.8009,1.8022,1.8032,1.8053,1.8073,1.8088,1.8125,1.8119,1.8136,1.8125,1.8169,1.8127,1.8132,1.8125,1.8124,1.8126,1.8177,1.8179,1.818,1.8181,0,1.804,1.8035,1.8054,1.8072,1.8088,1.8101,1.8112,1.8125,1.8108,1.8125,1.8148,1.816,1.8184,1.8204,1.8219,1.822,1.8198,1.8194,1.8204,1.821,1.8214,1.8213,1.8078,1.8191,1.819,1.8189,1.8189,1.8188,1.8115,1.8139,1.8146,1.8169,1.8176,1.8187,1.8208,1.8205,1.8225,1.8244,1.8232,1.826,1.8266,1.8284,1.8288,1.8309,1.829,1.8304,1.8308,1.8311,1.8317,1.8212,1.8311,1.8311,1.8311,1.831,1.831,0,1.8213,1.8217,1.8239,1.8256,1.8274,1.8254,1.8265,1.8281,1.8306,1.8314,1.8331,1.8358,1.8379,1.8375,1.8393,1.8411,1.8401,1.8416,1.8414,1.8415,1.8332,1.8322,1.8424,1.8424,1.8424,1.8424,1.8424,1.8424,1.8267,1.8307,1.8302,1.8346,1.8349,1.8377,1.8386,1.8396,1.8402,1.8435,1.8452,1.845,1.8454,1.8472,1.849,1.8488,1.8496,1.8515,1.851,1.8432,1.8421,1.841,1.84,1.8517,1.8517,1.8591,1.8591,1.8592]},{"header":{"parameterUnit":"m.s-1","parameterCategory":1,"la1":30.2991,"la2":30.254,"lo1":-89.0895,"lo2":-89.0444,"dy":0.0017,"dx":0.0017,"nx":28,"ny":28,"refTime":"2024-07-19T21:00:00:Z","depth":0,"parameterNumber":3,"parameterNumberName":"V-component_of_WINDS"},"data":[0,0,0,0,0,0,0,0,0,0,0,0,0,0,0,0,0,0,0,0,0,0,0,0,0,0,0,0,0,0,0,0,0,0,0,0,0,0,0,0,0,0,0,0,0,0,0,0,0,0,0,0,0,0,0,0,0,0,3.0798,3.08,0,3.1073,3.1076,3.1079,3.1185,3.1184,3.1183,3.1183,3.147,3.1478,3.1487,0,0,0,0,0,0,0,0,0,0,0,0,0,3.0367,3.0374,3.0797,3.0801,3.0804,3.1072,3.1076,3.108,3.1185,3.1184,3.1183,3.1182,3.1467,3.1477,3.1487,0,0,0,0,0,0,0,0,0,0,0,0,0,3.0589,3.0376,3.0797,3.0889,3.09,3.1072,3.1076,3.1081,3.1185,3.1184,3.1183,3.1182,3.1464,3.1476,3.1489,3.1591,0,0,3.1527,3.1533,0,0,0,0,0,0,0,0,3.0576,3.0605,3.0872,3.0883,3.0895,3.1093,3.103,3.1252,3.1186,3.1077,3.1183,3.1181,3.1346,3.1368,3.1423,3.1604,3.1617,3.1528,3.1536,3.1541,3.1545,0,0,0,0,0,0,0,3.0561,3.0594,3.0907,3.0876,3.089,3.0918,3.0948,3.1072,3.1215,3.1086,3.1095,3.1126,3.1352,3.141,3.143,3.1621,3.1528,3.1539,3.1547,3.1552,3.19,3.1902,0,0,0,0,0,0,3.0529,3.058,3.0898,3.0915,3.0729,3.0926,3.096,3.1031,3.1214,3.1241,3.1126,3.113,3.1389,3.1415,3.1441,3.1573,3.1541,3.1553,3.156,3.1898,3.1901,3.1902,0,0,0,0,0,0,3.052,3.0557,3.0887,3.075,3.0794,3.0935,3.1014,3.1037,3.1095,3.1244,3.1271,3.1159,3.1389,3.1423,3.1552,3.1584,3.1559,3.157,3.1897,3.1899,3.1901,3.1837,0,0,0,0,0,0,3.0507,3.0553,3.0592,3.075,3.0801,3.0992,3.1016,3.1043,3.1116,3.1123,3.1282,3.1307,3.1391,3.1533,3.1565,3.1601,3.158,3.1894,3.1898,3.1901,3.1837,3.1837,3.1837,0,0,0,0,0,3.0491,3.0564,3.0593,3.0631,3.0853,3.0994,3.1023,3.1117,3.1118,3.116,3.1255,3.1302,3.1575,3.1545,3.1582,3.1623,3.1893,3.1897,3.19,3.1837,3.1837,3.1837,0,0,0,0,0,0,3.0409,3.0587,3.0621,3.0747,3.0854,3.1011,3.1067,3.1114,3.1224,3.1226,3.1339,3.1374,3.1494,3.1572,3.1535,3.1731,3.1737,3.1749,3.1677,3.1678,3.1678,3.1658,3.1591,0,0,0,0,0,3.0405,3.0503,3.0654,3.075,3.0802,3.0924,3.0989,3.1052,3.1168,3.1215,3.132,3.1432,3.1544,3.1615,3.1726,3.1848,3.1885,3.1894,3.1894,3.1893,3.1902,3.1974,3.198,3.1915,3.1915,3.1915,0,0,3.0399,3.0508,3.0563,3.0736,3.0827,3.0927,3.0962,3.1067,3.1144,3.1232,3.136,3.144,3.1574,3.17,3.1761,3.1768,3.1928,3.1898,3.1896,3.1907,3.1978,3.1984,3.1989,3.1917,3.1917,3.1917,0,0,3.0439,3.053,3.0621,3.071,3.0846,3.0927,3.0948,3.1098,3.1154,3.1284,3.1352,3.1445,3.1634,3.1726,3.1797,3.187,3.1918,3.1903,3.1904,3.1972,3.1977,3.1982,3.2009,3.2017,3.1911,3.1911,3.1911,0,3.0415,3.0567,3.0662,3.0763,3.0838,3.0919,3.1012,3.1095,3.126,3.131,3.1315,3.1554,3.1649,3.1798,3.1815,3.187,3.19,3.1886,3.1968,3.1974,3.1981,3.2008,3.2017,3.1908,3.1909,3.1909,3.1909,0,3.0531,3.0636,3.0693,3.0848,3.0929,3.1025,3.1136,3.1207,3.1261,3.1341,3.1473,3.1589,3.1725,3.1765,3.182,3.1922,3.1922,3.1946,3.1955,3.1982,3.201,3.2021,3.1904,3.1905,3.1906,3.1907,0,0,3.053,3.0734,3.0754,3.0825,3.0979,3.1063,3.1163,3.1294,3.1352,3.1463,3.1551,3.1708,3.1731,3.1812,3.1878,3.1937,3.1988,3.1955,3.1959,3.1958,3.2108,3.209,3.2101,3.2019,3.2022,3.2024,3.2097,0,3.0592,3.0773,3.086,3.1004,3.1102,3.118,3.1268,3.1372,3.1449,3.1545,3.1632,3.1741,3.1762,3.1812,3.1874,3.1968,3.202,3.1964,3.2104,3.2108,3.207,3.2115,3.2097,3.2161,3.2109,3.2111,3.2112,0,3.0689,3.0797,3.0949,3.1091,3.1136,3.1212,3.1339,3.1429,3.1549,3.1601,3.169,3.1754,3.1864,3.1862,3.2016,3.1976,3.2038,3.2093,3.2098,3.2117,3.2113,3.2136,3.2183,3.2193,3.213,3.2128,3.2127,0,3.0674,3.0857,3.0972,3.103,3.1199,3.1251,3.1324,3.1443,3.1515,3.1626,3.1674,3.1797,3.1864,3.1958,3.2054,3.2044,3.2198,3.2205,3.2246,3.2244,3.2277,3.2274,3.2337,3.2314,3.2314,3.2314,3.2313,0,3.0735,3.0825,3.0967,3.1038,3.1142,3.1242,3.1342,3.1421,3.1526,3.1615,3.169,3.1772,3.1892,3.1989,3.2065,3.2181,3.2211,3.2257,3.2277,3.2252,3.2246,3.2296,3.2294,3.2316,3.2316,3.2315,3.2315,0,3.0736,3.0835,3.0965,3.1113,3.1152,3.1222,3.1349,3.1422,3.1501,3.1613,3.1645,3.1771,3.1889,3.1993,3.215,3.2201,3.232,3.2343,3.2279,3.229,3.2326,3.2321,3.2424,3.2443,3.2405,3.2405,3.2405,0,3.077,3.0841,3.0995,3.1058,3.1129,3.1231,3.1304,3.1405,3.1479,3.162,3.1676,3.1799,3.1903,3.2089,3.2196,3.2317,3.2344,3.2372,3.2363,3.2335,3.2346,3.2342,3.235,3.2372,3.2372,3.2372,3.2372,0,3.0818,3.0863,3.0965,3.1084,3.1169,3.1268,3.137,3.1418,3.1538,3.1617,3.1738,3.1818,3.1977,3.2099,3.2231,3.2308,3.2361,3.2373,3.2389,3.2366,3.2326,3.2349,3.228,3.2371,3.2371,3.2371,3.2371,3.2371,3.0839,3.0905,3.1023,3.1135,3.1221,3.1313,3.1388,3.1476,3.1578,3.1714,3.1767,3.189,3.2009,3.2191,3.2268,3.2367,3.2376,3.2399,3.2406,3.241,3.2406,3.2308,3.2391,3.2392,3.2392,3.2392,3.2392,0,3.0893,3.0972,3.1072,3.1211,3.1298,3.1336,3.145,3.1522,3.1628,3.1734,3.1833,3.1972,3.209,3.2205,3.233,3.2387,3.2414,3.2417,3.2415,3.2432,3.2391,3.2365,3.2392,3.2392,3.2392,3.2392,3.2392,3.2392,3.0931,3.1046,3.1104,3.1262,3.1342,3.1461,3.1523,3.1609,3.1694,3.1844,3.1942,3.2015,3.2125,3.2257,3.2368,3.2399,3.2442,3.2438,3.2476,3.2436,3.2434,3.2433,3.241,3.2446,3.2446,3.2509,3.2509,3.251]}]]